GW6569 Weather Reports


Display with metric or nautical units.
time (UTC)temp
F
wind
direction
speed
MPH
gust
MPH
rain 1hr
in
rain 24hr
in
rain mn
in
humidity
%
barometer
mb
20260503224012 62 360 3.0 8.0 0.00 0.00 0.00 32 1016.7
20260503223513 62 270 2.0 5.0 0.00 0.00 0.00 33 1016.5
20260503223028 62 314 1.0 7.0 0.00 0.00 0.00 32 1016.5
20260503222510 62 219 3.0 7.0 0.00 0.00 0.00 32 1016.6
20260503222010 62 301 1.0 7.0 0.00 0.00 0.00 33 1016.8
20260503221528 62 11 2.0 6.0 0.00 0.00 0.00 33 1016.8
20260503221010 62 304 2.0 6.0 0.00 0.00 0.00 32 1016.6
20260503220514 62 347 2.0 6.0 0.00 0.00 0.00 32 1016.6
20260503220032 62 234 3.0 6.0 0.00 0.00 0.00 32 1016.8
20260503215511 62 318 2.0 7.0 0.00 0.00 0.00 33 1016.7
20260503215011 62 285 2.0 8.0 0.00 0.00 0.00 32 1016.5
20260503214540 62 345 1.0 8.0 0.00 0.00 0.00 33 1016.6
20260503214012 62 281 3.0 7.0 0.00 0.00 0.00 32 1016.6
20260503213512 62 272 2.0 9.0 0.00 0.00 0.00 31 1016.6
20260503213030 62 261 2.0 9.0 0.00 0.00 0.00 32 1016.7
20260503212512 62 284 3.0 8.0 0.00 0.00 0.00 32 1016.5
20260503212013 62 360 2.0 9.0 0.00 0.00 0.00 31 1016.7
20260503211529 61 342 3.0 11.0 0.00 0.00 0.00 33 1016.6
20260503211011 61 284 5.0 12.0 0.00 0.00 0.00 32 1016.7
20260503210510 61 329 5.0 12.0 0.00 0.00 0.00 32 1016.7
20260503210032 61 254 3.0 9.0 0.00 0.00 0.00 32 1016.7
20260503205510 61 284 4.0 11.0 0.00 0.00 0.00 32 1016.7
20260503205013 61 302 4.0 11.0 0.00 0.00 0.00 31 1016.5
20260503204534 61 302 3.0 11.0 0.00 0.00 0.00 31 1016.4
20260503204011 61 316 4.0 12.0 0.00 0.00 0.00 31 1016.6
20260503203511 61 296 4.0 12.0 0.00 0.00 0.00 33 1016.5
20260503203039 61 57 4.0 11.0 0.00 0.00 0.00 32 1016.5
20260503202513 61 288 2.0 9.0 0.00 0.00 0.00 33 1016.5
20260503202012 60 279 4.0 13.0 0.00 0.00 0.00 32 1016.5
20260503201532 60 271 6.0 13.0 0.00 0.00 0.00 31 1016.6
20260503201014 60 348 4.0 13.0 0.00 0.00 0.00 32 1016.6
20260503200513 60 75 5.0 14.0 0.00 0.00 0.00 33 1016.8
20260503200051 60 340 5.0 14.0 0.00 0.00 0.00 32 1016.7
20260503195512 60 325 6.0 14.0 0.00 0.00 0.00 31 1016.6
20260503195010 60 69 2.0 14.0 0.00 0.00 0.00 34 1017.2
20260503194530 60 328 4.0 13.0 0.00 0.00 0.00 33 1017.2
20260503194010 60 315 3.0 13.0 0.00 0.00 0.00 33 1017.2
20260503193511 60 44 6.0 12.0 0.00 0.00 0.00 33 1017.1
20260503193036 60 256 5.0 14.0 0.00 0.00 0.00 33 1017.2
20260503192512 60 281 5.0 14.0 0.00 0.00 0.00 33 1017.3
20260503192013 60 59 3.0 11.0 0.00 0.00 0.00 34 1017.4
20260503191534 60 331 5.0 12.0 0.00 0.00 0.00 34 1017.4
20260503191013 60 346 4.0 15.0 0.00 0.00 0.00 35 1017.7
20260503190513 59 281 5.0 15.0 0.00 0.00 0.00 35 1017.7
20260503190036 59 335 4.0 13.0 0.00 0.00 0.00 34 1017.5
20260503185512 59 304 4.0 16.0 0.00 0.00 0.00 34 1017.6
20260503185013 59 290 4.0 16.0 0.00 0.00 0.00 35 1017.7
20260503184541 59 286 7.0 12.0 0.00 0.00 0.00 35 1017.6
20260503184013 59 352 6.0 14.0 0.00 0.00 0.00 35 1017.8
20260503183512 59 281 6.0 14.0 0.00 0.00 0.00 36 1017.7
20260503183040 59 333 3.0 13.0 0.00 0.00 0.00 35 1017.9
20260503182512 58 318 4.0 12.0 0.00 0.00 0.00 37 1017.9
20260503182015 58 305 6.0 14.0 0.00 0.00 0.00 37 1017.8
20260503181547 58 211 7.0 15.0 0.00 0.00 0.00 36 1017.8
20260503181013 58 252 3.0 15.0 0.00 0.00 0.00 37 1017.8
20260503180512 58 9 6.0 14.0 0.00 0.00 0.00 37 1017.7
20260503180044 58 268 6.0 11.0 0.00 0.00 0.00 38 1017.7
20260503175513 57 307 4.0 13.0 0.00 0.00 0.00 38 1017.8
20260503175012 57 320 5.0 12.0 0.00 0.00 0.00 38 1017.8
20260503174545 57 278 4.0 14.0 0.00 0.00 0.00 40 1018.0
20260503174014 57 285 6.0 14.0 0.00 0.00 0.00 39 1017.9
20260503173513 57 322 4.0 14.0 0.00 0.00 0.00 39 1018.1
20260503173046 57 289 8.0 13.0 0.00 0.00 0.00 39 1017.9
20260503172513 57 315 6.0 15.0 0.00 0.00 0.00 39 1018.2
20260503172011 57 25 6.0 15.0 0.00 0.00 0.00 38 1018.2
20260503171533 57 325 4.0 10.0 0.00 0.00 0.00 40 1018.3
20260503171013 57 325 5.0 13.0 0.00 0.00 0.00 39 1018.3
20260503170512 57 327 6.0 13.0 0.00 0.00 0.00 40 1018.5
20260503151013 55 258 7.0 12.0 0.00 0.01 0.00 42 1018.4
20260503150517 55 250 7.0 15.0 0.00 0.01 0.00 41 1018.5
20260503131012 52 286 4.0 11.0 0.00 0.01 0.00 48 1017.9
20260503130511 52 344 5.0 13.0 0.00 0.01 0.00 48 1018.0
20260503110513 0 25.0 0.0 0.00 0.01 0.00 1017.0
20260503081556 54 22 5.0 13.0 0.00 0.01 0.00 60 1014.2
20260503081016 54 343 25.0 11.0 0.00 0.01 0.00 60 1014.0
20260503080514 54 360 7.0 11.0 0.00 0.01 0.00 60 1014.0
20260503072516 54 30 2.0 8.0 0.00 0.01 0.00 60 1013.5
20260503072016 54 296 3.0 11.0 0.00 0.01 0.00 59 1013.5
20260503071557 54 294 5.0 11.0 0.00 0.01 0.00 60 1013.5
20260503071016 54 331 2.0 12.0 0.00 0.01 0.00 60 1013.4
20260503070518 54 277 4.0 12.0 0.00 0.01 0.00 61 1013.3
20260503060104 53 269 0.0 2.0 0.00 0.01 0.00 64 1013.0
20260503055016 54 268 0.0 3.0 0.00 0.01 0.00 63 1012.9
20260503054553 54 329 0.0 2.0 0.00 0.01 0.00 63 1012.9
20260503054016 54 24 0.0 3.0 0.00 0.01 0.00 63 1013.0
20260503053517 54 307 1.0 3.0 0.00 0.01 0.00 62 1013.0
20260503053101 54 274 0.0 5.0 0.00 0.01 0.00 61 1013.2
20260503052515 54 348 0.0 5.0 0.00 0.01 0.00 61 1013.2
20260503052017 54 300 0.0 3.0 0.00 0.01 0.00 61 1013.3
20260503051550 54 327 1.0 3.0 0.00 0.01 0.00 60 1013.2
20260503051020 54 293 0.0 3.0 0.00 0.01 0.00 60 1013.0
20260503050519 54 311 0.0 3.0 0.00 0.01 0.00 60 1012.9
20260503050058 55 302 1.0 7.0 0.00 0.01 0.00 59 1013.0
20260503045519 55 324 0.0 7.0 0.00 0.01 0.00 59 1013.1
20260503045015 55 287 1.0 4.0 0.00 0.01 0.00 59 1013.1
20260503044612 55 317 1.0 4.0 0.00 0.01 0.00 59 1013.0
20260503044017 55 342 0.0 3.0 0.00 0.01 0.00 59 1013.1
20260503043516 55 349 1.0 3.0 0.00 0.01 0.00 58 1013.1
20260503043028 55 315 0.0 4.0 0.00 0.01 0.00 59 1013.1
20260503042507 55 289 1.0 4.0 0.00 0.01 0.00 59 1013.0
20260503042012 55 352 0.0 3.0 0.00 0.01 0.00 58 1013.2
20260503041526 55 304 0.0 5.0 0.00 0.01 0.00 58 1013.2
20260503041010 55 352 2.0 5.0 0.00 0.01 0.00 57 1013.2
20260503040511 55 27 1.0 5.0 0.00 0.01 0.00 58 1013.1
20260503040028 55 308 1.0 7.0 0.00 0.01 0.00 58 1013.1
20260503035511 55 262 0.0 6.0 0.00 0.01 0.01 59 1013.3
20260503035007 55 323 2.0 6.0 0.00 0.01 0.01 60 1013.2
20260503034532 55 320 0.0 4.0 0.00 0.01 0.01 59 1013.2
20260503034010 55 304 0.0 4.0 0.00 0.01 0.01 59 1013.3
20260503033514 55 291 0.0 2.0 0.00 0.01 0.01 59 1013.1
20260503033036 55 275 0.0 2.0 0.00 0.01 0.01 59 1013.1
20260503032507 55 317 0.0 4.0 0.00 0.01 0.01 60 1013.1
20260503032009 55 327 0.0 4.0 0.00 0.01 0.01 59 1013.0
20260503031530 56 343 0.0 5.0 0.00 0.01 0.01 60 1012.9
20260503031012 56 350 1.0 5.0 0.00 0.01 0.01 59 1012.8
20260503030510 56 9 2.0 5.0 0.00 0.01 0.01 60 1013.0
20260503030047 56 329 1.0 5.0 0.00 0.01 0.01 59 1013.1
20260503025511 56 348 1.0 5.0 0.00 0.01 0.01 60 1013.0
20260503025012 56 352 1.0 4.0 0.00 0.01 0.01 59 1013.1
20260503024533 56 296 1.0 4.0 0.00 0.01 0.01 60 1013.4
20260503024013 56 336 2.0 4.0 0.00 0.01 0.01 59 1013.4
20260503023511 56 294 1.0 4.0 0.00 0.01 0.01 59 1013.2
20260503023033 56 278 1.0 4.0 0.00 0.01 0.01 59 1013.2
20260503022510 56 334 0.0 3.0 0.00 0.01 0.01 59 1013.2
20260503022009 56 336 2.0 3.0 0.00 0.01 0.01 58 1013.3
20260503021528 56 9 1.0 4.0 0.00 0.01 0.01 58 1013.2
20260503021011 56 275 1.0 6.0 0.00 0.01 0.01 57 1013.2
20260503020511 56 294 1.0 6.0 0.00 0.01 0.01 57 1013.1
20260503020028 56 331 1.0 7.0 0.00 0.01 0.01 57 1013.2
20260503015510 56 304 1.0 5.0 0.00 0.01 0.01 57 1013.2
20260503015013 56 325 1.0 6.0 0.00 0.01 0.01 57 1013.3
20260503014530 56 33 1.0 6.0 0.00 0.01 0.01 56 1013.1
20260503014010 56 349 1.0 7.0 0.00 0.01 0.01 56 1013.2
20260503013511 56 345 0.0 7.0 0.00 0.01 0.01 56 1013.2
20260503013028 56 309 1.0 5.0 0.00 0.01 0.01 55 1013.0
20260503012508 56 302 2.0 5.0 0.00 0.01 0.01 55 1013.0
20260503012009 56 352 1.0 4.0 0.00 0.01 0.01 55 1013.0
20260503011528 56 340 2.0 5.0 0.00 0.01 0.01 55 1012.8
20260503011013 56 9 0.0 5.0 0.00 0.01 0.01 55 1012.5
20260503010514 56 321 2.0 5.0 0.00 0.01 0.01 54 1012.5
20260503010031 56 44 2.0 5.0 0.00 0.01 0.01 53 1012.8
20260503005511 56 296 1.0 8.0 0.00 0.01 0.01 54 1012.8
20260503005011 56 338 2.0 8.0 0.00 0.01 0.01 53 1012.7
20260503004530 56 304 1.0 7.0 0.00 0.01 0.01 53 1012.7
20260503004012 56 352 1.0 6.0 0.00 0.01 0.01 53 1012.5
20260503003511 56 341 1.0 9.0 0.00 0.01 0.01 52 1012.3
20260503003032 56 326 3.0 9.0 0.00 0.01 0.01 51 1012.6
20260503002510 56 12 1.0 5.0 0.00 0.01 0.01 52 1012.4
20260503002012 56 299 1.0 6.0 0.00 0.01 0.01 52 1012.4
20260503001528 56 350 1.0 9.0 0.00 0.01 0.01 52 1012.2
20260503001012 56 300 3.0 9.0 0.00 0.01 0.01 54 1012.3
20260503000509 56 352 2.0 9.0 0.00 0.01 0.01 55 1012.1
20260503000033 56 352 3.0 10.0 0.00 0.01 0.01 54 1012.1
20260502235510 56 322 4.0 10.0 0.00 0.01 0.01 54 1012.2
20260502235009 56 360 3.0 10.0 0.00 0.01 0.01 54 1012.3
20260502234528 56 330 3.0 10.0 0.00 0.01 0.01 54 1012.1
20260502234011 56 319 3.0 8.0 0.00 0.01 0.01 53 1012.0
20260502233512 56 301 2.0 12.0 0.00 0.01 0.01 51 1012.1
20260502233030 56 322 4.0 12.0 0.00 0.01 0.01 49 1012.0
20260502232511 56 28 4.0 9.0 0.00 0.01 0.01 47 1012.1
20260502232012 56 42 4.0 10.0 0.00 0.01 0.01 46 1011.9
20260502231531 56 49 5.0 11.0 0.00 0.01 0.01 45 1012.0
20260502231009 56 349 5.0 11.0 0.00 0.01 0.01 45 1012.1
20260502230512 56 9 3.0 14.0 0.00 0.01 0.01 45 1012.1
20260502230030 56 38 5.0 14.0 0.00 0.01 0.01 46 1012.2
20260502225512 56 29 2.0 10.0 0.00 0.01 0.01 48 1012.1
20260502225009 56 9 4.0 11.0 0.00 0.01 0.01 46 1011.9
20260502224528 56 39 6.0 12.0 0.00 0.01 0.01 46 1012.0